Weather in Topki

Russia / Kemerovo Oblast     55°16′35″N   85°36′54″E
temp.,
°C
wind,
m/s
gust,
m/s
humid.,
%
clouds,
%
prec.,
mm/h
press.,
hPa
HPBL,
m
25 may, wed
wed2501:00+13nne41057100 0.0 1016157
04:00+12nne51262100 0.0 1016213
07:00+14nne71663100 0.0 1015382
10:00+20ne8134999 0.0 1014708
13:00+24ne7935100 0.0 10141256
16:00+23ne61040100 0.0 1014925
19:00+22nne6114558 0.0 1014600
22:00+17ne5135926 0.0 1015215
26 may, thu
thu2601:00+15nne5136822 0.0 1015252
04:00+14ne5147880 0.0 1015288
07:00+14ne612810 0.0 1016343
10:00+19ne710570 0.0 1016847
13:00+22ne79390 0.0 10151309
16:00+22ne78330 0.0 10141406
19:00+20ne69400 0.0 1014943
22:00+14nne41155100 0.0 1014200
27 may, fri
fri2701:00+12ne51256100 0.0 1013235
04:00+10nne4105895 0.0 1012181
07:00+12nne5126380 0.0 1011291
10:00+18ne7104564 0.0 1010941
13:00+21ne77355 0.0 10101512
16:00+22nne67320 0.0 10101733
19:00+20nne58380 0.0 1010776
22:00+14ne45510 0.0 101151
28 may, sat
sat2801:00+11ene410714 0.0 1012185
04:00+9ne467792 0.0 101281
07:00+11ne3772100 0.0 1011167
10:00+16ene2155100 0.0 1010356
13:00+18ene1144100 0.0 1010578
16:00+19nnw1145100 0.0 1009375
19:00+20nw2344100 0.0 1009662
22:00+17e0148100 0.0 100911
29 may, sun
sun2901:00+16wsw346099 0.0 100994
04:00+11w3689100 0.0 1010119
07:00+13nw51172100 0.0 1011361
10:00+16wnw585610 0.0 1011799
13:00+16wnw676390 0.0 1012768
16:00+19w5756100 0.6 10121466
19:00+17w566190 0.9 10121203
22:00+11w369137 0.0 1014117